Hourly Data Report for September 01, 2017

All times are specified in Local Standard Time (LST). Add 1 hour to adjust for Daylight Saving Time where and when it is observed.

KUGAARUK CLIMATE
NUNAVUT

68°32'15.060" N
89°47'47.020" W
15.80 m
2303094
71407
NBB

Download Data

Hourly Data (September 2017)
Hourly Data Report for September 1, 2017
Temp Definition
°C
Dew Point Temp Definition
°C
Rel Hum Definition
%
Wind Dir Definition
10's deg

Wind Spd Definition
km/h
Visibility Definition
km
Stn Press Definition
kPa
Hmdx Definition


Wind Chill Definition


Weather Definition


TIME
00:00 1.0 -1.1 86 1 28   100.11     LegendNANA
01:00 0.6 -1.0 89 2 22   100.16     LegendNANA
02:00 0.2 -0.9 93 2 23   100.20     LegendNANA
03:00 0.4 -1.5 87 2 22   100.25     LegendNANA
04:00 0.4 -1.6 86 1 23   100.29     LegendNANA
05:00 0.3 -1.4 88 2 20   100.34     LegendNANA
06:00 0.5 -1.7 85 3 26   100.38     LegendNANA
07:00 0.5 -0.8 91 1 28   100.41     LegendNANA
08:00 0.6 -1.7 85 3 27   100.45     LegendNANA
09:00 0.8 -1.2 86 2 29   100.48     LegendNANA
10:00 0.7 -0.8 89 2 26   100.51     LegendNANA
11:00 0.6 -1.1 88 2 24   100.60     LegendNANA
12:00 0.8 -1.9 82 3 23   100.64     LegendNANA
13:00 1.3 -1.9 79 2 24   100.66     LegendNANA
14:00 0.8 -2.7 77 2 24   100.71     LegendNANA
15:00 1.0 -2.1 80 2 23   100.75     LegendNANA
16:00 1.1 -1.9 81 3 24   100.77     LegendNANA
17:00 1.2 -1.7 81 4 24   100.81     LegendNANA
18:00 1.2 -1.2 84 2 23   100.87     LegendNANA
19:00 1.4 -1.2 83 4 19   100.89     LegendNANA
20:00 1.5 -1.0 84 4 18   100.92     LegendNANA
21:00 1.3 -1.3 83 3 18   100.91     LegendNANA
22:00 1.2 -1.0 85 4 16   100.94     LegendNANA
23:00 1.1 -1.0 86 3 18   100.93     LegendNANA

Notes on Data Quality.

Legend

  • E = Estimated
  • M = Missing
  • NA = Not Available
  • ‡ = Partner data that is not subject to review by the National Climate Archives
Date modified: